Location: Newark
(46.1292°N, 1.0086°W)
Time: 01:34:20
(UTC+00:00)

Vanguard 3 - Pass Details

Date: 19 November 2019
Orbit: 508 x 3263 km, 33.3° (Epoch: 12 December)

Event Time Altitude Azimuth Distance (km) Brightness Sun altitude
Rises 14:29:03 0° 240° (WSW) 7,004 13.3 15.1°
Reaches altitude 10° 14:33:47 10° 235° (SW) 6,125 13.5 14.6°
Maximum altitude 14:52:21 50° 169° (S) 3,645 11.0 12.4°
Drops below altitude 10° 15:07:12 10° 101° (E) 5,008 10.9 10.6°
Sets 15:10:37 0° 96° (E) 5,699 11.1 10.2°
